{"data":{"norad_id":67087,"epoch":"2026-09-20T22:18:33.039648Z","epoch_age_seconds":41104,"freshness":"FRESH","line1":"1 67087U 25298N   26263.92954907  .00002040  00000+0  17871-3 0  9990","line2":"2 67087  69.9987 242.1507 0003822 266.5287  93.5435 14.98338720 42460","mean_motion":14.9833872,"eccentricity":0.0003822,"inclination_deg":69.9987,"raan_deg":242.1507,"arg_perigee_deg":266.5287,"mean_anomaly_deg":93.5435,"bstar":0.00017871,"rev_number":4246,"period_min":96.106439804212,"perigee_km":569.3725717779,"apogee_km":574.68527861112,"semimajor_km":6950.1659251945,"source":"CELESTRAK","updated_at":"2026-09-21T09:00:36.099774Z"}}